Home > Weather > Limerick > Past weeks

Flag for Ireland Past Weather in Limerick, Ireland — Yesterday and Last 2 Weeks

Now
52 °F

Fog.


Feels Like: 52 °F
Forecast: 52 / 64 °F
Wind: 2 mph from Northeast

Location: Shannon Airport

Current Time: Aug 25, 2016 at 5:47:41 AM

Latest Report: Aug 25, 2016 at 5:00 AM


Visibility: 0 mi

Pressure: 30.07 "Hg

Humidity: 100%

Dew Point: 52 °F

Location of LimerickLocation

Past Weather in Limerick — Graph

°F

Limerick Temperature Yesterday

Maximum temperature yesterday: 68 °F (at 3:00 PM)
Minimum temperature yesterday: 50 °F (at 6:30 AM)
Average temperature yesterday: 59 °F

High & Low Weather Summary for the Past Weeks

 TemperatureHumidityPressure
High77 °F (Aug 16, 1:30 PM)100% (Aug 12, 9:00 PM)30.39 "Hg (Aug 12, 9:00 PM)
Low50 °F (Aug 24, 6:30 AM)44% (Aug 15, 3:30 PM)29.12 "Hg (Aug 20, 12:00 AM)
Average61 °F84%30.00 "Hg
* Reported Aug 10 4:00 AM — Aug 25 4:30 AM, Limerick, Weather by CustomWeather, © 2016

Note: Actual official high and low records may vary slightly from our data, if they occured in-between our weather recording intervals... More about our weather records

Advertising

Limerick Weather History for the Previous 24 Hours

Scroll right to see more
 ConditionsComfort  
Time TempWeatherWind HumidityBarometerVisibility
4:30 AM
Thu, Aug 25
50 °FFog.2 mph100%30.07 "Hg1 mi
4:00 AM52 °FFog.5 mph94%30.07 "HgN/A
3:30 AM52 °FFog.No wind94%30.07 "HgN/A
3:00 AM52 °FFog.No wind94%30.09 "HgN/A
2:30 AM52 °FFog.No wind94%30.09 "HgN/A
2:00 AM52 °FPassing clouds.No wind94%30.09 "HgN/A
1:30 AM52 °FPassing clouds.No wind94%30.09 "HgN/A
1:00 AM54 °FPassing clouds.No wind88%30.09 "HgN/A
12:30 AM54 °FPassing clouds.1 mph94%30.09 "HgN/A
12:00 AM54 °FPassing clouds.1 mph94%30.12 "HgN/A
11:30 PM
Wed, Aug 24
55 °FPassing clouds.No wind88%30.12 "HgN/A
11:00 PM55 °FPassing clouds.No wind88%30.12 "HgN/A
10:30 PM55 °FPassing clouds.5 mph88%30.12 "HgN/A
10:00 PM57 °FPassing clouds.3 mph88%30.12 "HgN/A
9:30 PM59 °FPartly sunny.5 mph82%30.12 "HgN/A
9:00 PM59 °FPartly sunny.3 mph82%30.12 "HgN/A
8:30 PM61 °FPartly sunny.5 mph77%30.12 "HgN/A
8:00 PM63 °FPartly sunny.5 mph77%30.12 "HgN/A
7:30 PM63 °FPartly sunny.6 mph77%30.12 "HgN/A
7:00 PM64 °FPartly sunny.6 mph68%30.12 "HgN/A
6:30 PM64 °FPartly sunny.8 mph64%30.12 "HgN/A
6:00 PM66 °FPartly sunny.9 mph64%30.12 "HgN/A
5:30 PM68 °FScattered clouds.9 mph60%30.12 "HgN/A
5:00 PM66 °FScattered clouds.3 mph60%30.12 "HgN/A
4:30 PM68 °FScattered clouds.6 mph56%30.12 "HgN/A
4:00 PM68 °FScattered clouds.8 mph53%30.12 "HgN/A
3:30 PM66 °FScattered clouds.2 mph56%30.12 "HgN/A
3:00 PM68 °FPassing clouds.9 mph56%30.15 "HgN/A
2:30 PM66 °FScattered clouds.9 mph60%30.15 "HgN/A
2:00 PM66 °FScattered clouds.9 mph56%30.15 "HgN/A
1:30 PM66 °FScattered clouds.7 mph60%30.15 "HgN/A
1:00 PM64 °FScattered clouds.6 mph64%30.15 "HgN/A
12:30 PM63 °FScattered clouds.7 mph73%30.15 "HgN/A
12:00 PM64 °FScattered clouds.5 mph64%30.15 "HgN/A
11:30 AM63 °FScattered clouds.3 mph73%30.18 "HgN/A
11:00 AM63 °FScattered clouds.7 mph73%30.18 "HgN/A
10:30 AM61 °FPassing clouds.9 mph77%30.15 "HgN/A
10:00 AM59 °FPassing clouds.8 mph77%30.15 "HgN/A
9:30 AM57 °FPassing clouds.9 mph82%30.15 "HgN/A
9:00 AM55 °FPassing clouds.9 mph82%30.18 "HgN/A
8:30 AM54 °FPassing clouds.10 mph88%30.18 "HgN/A
8:00 AM52 °FPassing clouds.8 mph94%30.15 "HgN/A
7:30 AM50 °FPassing clouds.10 mph100%30.15 "HgN/A
7:00 AM50 °FPassing clouds.8 mph100%30.15 "HgN/A
6:30 AM50 °FPassing clouds.8 mph100%30.15 "HgN/A
6:00 AM52 °FPassing clouds.9 mph94%30.15 "HgN/A
5:30 AM52 °FPassing clouds.8 mph94%30.15 "HgN/A
5:00 AM52 °FPassing clouds.7 mph94%30.15 "HgN/A
Weather by CustomWeather, © 2016

See weather overviewHow to use our weather pages